Weather in Koshurnikovo

Russia / Krasnoyarsk Krai     54°18′28″N   93°22′50″E
temp.,
°C
wind,
m/s
gust,
m/s
humid.,
%
clouds,
%
prec.,
mm/h
press.,
hPa
HPBL,
m
30 june, thu
thu3001:00+13ne22795 0.0 100321
04:00+12ene227398 0.0 100121
07:00+16e1265100 0.0 100092
10:00+24se2342100 0.0 999531
13:00+28sse2335100 0.0 9991033
16:00+31ene1231100 0.0 9972068
19:00+18w3993100 0.8 1003501
22:00+16wsw1198100 0.4 100425
1 july, fri
fri101:00+15ssw119954 0.8 100310
04:00+15ne0199100 0.5 100237
07:00+15wnw01100100 7.1 100338
10:00+15sse119799 6.6 1004203
13:00+18ssw2287100 7.5 1004606
16:00+18wsw1289100 2.2 1003482
19:00+17nnw0195100 3.9 100376
22:00+15w0096100 0.8 100310
2 july, sat
sat201:00+13ne1196100 1.4 100411
04:00+13sw1197100 1.4 100526
07:00+13sw1194100 3.3 100756
10:00+14ssw1291100 1.2 1007166
13:00+13ssw129089 1.5 1008102
16:00+17sw236556 0.6 10081094
19:00+16ssw1186100 2.1 100852
22:00+11e119088 0.3 100812
3 july, sun
sun301:00+9e119484 0.5 100910
04:00+8e11955 0.0 100910
07:00+11se1192100 0.0 1009155
10:00+17s246187 0.3 1008970
13:00+20w244617 1.1 10071878
16:00+20wnw344551 0.3 10062020
19:00+19wnw12582 0.4 1007744
22:00+11nne11874 0.1 100811
4 july, mon
mon401:00+9ne21935 0.2 100814
04:00+8ene119412 0.0 100811
07:00+13e11785 0.0 1007159
10:00+20sse22510 0.0 1005974
13:00+23ssw12371 0.0 10032112
16:00+24s12332 0.0 10022340
19:00+21e1156100 0.0 100024
22:00+14ne2262100 0.0 100014